Погода Черновцы

Поиск расширенной информации на нашем сайте:

Полезная информация:

Новости сайта



02.01.2020
Опубликован Долгосрочный прогноз погоды по городам России и ближнего зарубежья на январь 2020 года.
Карты: Прогноз на январь и февраль 2020 года, Сравнение прогнозируемой аномалии приземной температуры воздуха на январь 2020 года по разным моделям.




Погода Черновцы - сегодня

Время (UTC), дата Ветер
(°,м/с) 
Видим.   Явления Облачность Т
(°С)
Тd
(°С)
f(%) Тe
(°С)
Pmin
(гПа)
dP
(гПа)
Po
(мм)
O2
(г/м3)
Тmin Tmax R s Состояние
почвы
21 22.10.20 330 (СЗ) 5000 м  дымка  ясно 
+8.9 +8.3 96 +9  1020.4  -0.1  743  288           
00 23.10.20 тихо ()   1900 м  дымка  4/0 верхняя 
[Ci fib]
+8.2 +7.8 97 +8  1019.9  -0.5  743  289           
03 23.10.20 тихо ()   3300 м  дымка  4/0 верхняя 
[Ci fib]
+7.4 +7 97 +7  1019.3  -0.7  742  290           
06 23.10.20 тихо ()   5000 м  дымка  3/0 верхняя 
[Ci fib]
+6.5 +6.3 99 +7  1019.4  742  291  +6.1  -0.6       
09 23.10.20 310 (СЗ) 20000 м    4/0 верхняя 
[Ci fib]
+13.7 +7.4 66 +15  1018  -0.6  742  283           
12 23.10.20 330 (СЗ) 50000 м    4/0 верхняя 
[Ci fib]
+18.1 +6 45 +20  1016.6  -0.9  741  279           
15 23.10.20 тихо ()   35000 м    6/0 верхняя 
[Ci fib]
+16.6 +7.3 54 +17  1015.8  -1  740  280           
18 23.10.20 тихо ()   5000 м  дым  6/0 верхняя 
[Ci fib]
+11 +8.2 83 +11  1016.4  0.1  740  285    +19.3       
21 23.10.20 тихо ()   7000 м  дымка  6/0 верхняя 
[Ci fib]
+9.6 +8.2 91 +10  1016.1  -0.5  740  287           
00 24.10.20 тихо ()   8000 м  дымка  6/0 верхняя 
[Ci fib]
+8.9 +7.9 93 +9  1015.4  -0.7  739  287           
03 24.10.20 тихо ()   10 км    4/4 1500 м 
[Sc]
+8.6 +7.8 95 +9  1014.6  -0.8  739  287           
06 24.10.20 тихо ()   10 км    8/0 средняя 
[Ac trans]
+9.1 +8.5 96 +9  1014.9  0.3  739  287  +7.9         
09 24.10.20 тихо ()   16000 м    8/0 средняя, верхняя 
[Ac trans|Ci fib]
+14.2 +11.2 82 +17  1014.3  739  281           
12 24.10.20 330 (СЗ) 40000 м    8/0 средняя 
[Ac trans]
+18.4 +10.9 62 +23  1014  0.1  739  277           
15 24.10.20 300 (СЗ) 11000 м    8/0 средняя 
[Ac trans]
+16.7 +11.4 71 +21  1014.8  0.6  740  279           
18 24.10.20 230 (ЮЗ) 2200 м  дымка  9/0 средняя 
[Ac trans]
+13.8 +11.8 88 +19  1016.4  1.3  740  282           
21 24.10.20 320 (СЗ) 3400 м  дымка  10/10 1500 м 
[Sc]
+13.6 +12.5 93 +19  1017.5  741  282           
00 25.10.20 320 (СЗ) 4100 м  дымка  10/10 960 м 
[Sc]
+12.9 +11.8 93 +17  1017.9  0.4  742  283           
03 25.10.20 тихо ()   18000 м    10/10 800 м 
[Sc]
+12.5 +11.2 92 +16  1018.3  0.3  742  284           
06 25.10.20 тихо ()   4100 м  слаб. ливневой дождь  10/6 1000 м кучево-дожд., средняя 
[Cb calv|Ac As]
+11.6 +11.2 97 +15  1018.7  0.3  742  285  +11.5    0.3     
09 25.10.20 100 (В) 2100 м  слаб. ливневой дождь  10/10 120 м кучево-дожд. 
[Cb cap]
+11.6 +11 96 +14  1018.6  -0.1  742  285           
12 25.10.20 100 (В) 4200 м  дымка{ливн. осадки}  10/10 150 м 
[St]
+12.2 +11.6 96 +16  1017.3  -1.2  741  284           
15 25.10.20 110 (В) 2800 м  дымка  10/10 180 м 
[St]
+12.3 +11.7 96 +16  1017  -0.3  741  283           
18 25.10.20 120 (ЮВ) 2200 м  дымка  10/10 100 м 
[St]
+12.2 +11.8 97 +16  1016.8  -0.2  741  283    +12.7     
21 25.10.20 120 (ЮВ) 2100 м  дымка  10/10 210 м 
[St]
+12.3 +11.9 97 +16  1016.4  -0.4  740  283           
Время (UTC), дата Ветер
(°,м/с) 
Видим.   Явления Облачность Т
(°С)
Тd
(°С)
f(%) Тe
(°С)
Pmin
(гПа)
dP
(гПа)
Po
(мм)
O2
(г/м3)
Тmin Tmax R s Состояние
почвы

Для получения пояснительной информации подведите курсор к названию столбца.

ПОГОДА Черновцы - архив

Всё, что Вы хотите узнать о погоде Черновцы - удобно и подробно!

Выберите нужную дату (начиная с 1 января 2019* года) и нажмите кнопку "Найти".
Будут отображены архивные сводки погоды по пункту Черновцы, начиная с указанной даты.


Отображать данные в формате CSV (для использования в таблицах Excel)


Внимание! Наш архив погоды предназначен исключительно для личного некоммерческого использования в познавательных целях. Если Вам необходимы официальные справки о состоянии погоды (для производственных, юридических, коммерческих и т.п. целей), обращайтесь в органы Росгидромета.

*Примечание: данная дата относится к архиву по метеостанциям СССР (Россия, СНГ, Балтия).
Архив по метеостанциям Зарубежной Европы и Азии (кроме Китая) хранится 10 дней, по другим регионам земного шара (Китай, Африка, Америка, Австралия, Океания) - 1 день.

Черновцы - район местоположения метеостанции


Название, широта, долгота, высота метеостанции:
Черновцы 48.4°ш. 25.9°д. 246 м над ур. моря [Украина]

Дополнительная информация

В oтличие oт бoльшинства пoгoдных сайтoв мы публикуем пoдрoбную метеoинфoрмацию в детальнoм прoфессиoнальнoм фoрмате.

Характеристики температуры и влажнoсти вoздуха измеряются на высoте 2 м в тени вдали oт зданий и деревьев.
Скoрoсть ветра измеряется на высoте 10 м (на урoвне рoста челoвека скoрoсть ветра ниже в 1.5-2 раза). Если метеoстанция нахoдится в гoрoде или в лесу, тo скoрoсть ветра занижена на 2-4 м/с пo сравнению с oткрытым местoм. Скoрoсть ветра над акватoриями крупных рек и oзёр, а также на вершинах хoлмoв на 2-5 м/с выше, чем в oбычных услoвиях.
Атмoсфернoе давление в разных тoчках местнoсти мoжет значительнo oтличаться oт давления на метеoстанции, в зависимoсти oт услoвий рельефа (при пoдъёме на 10 м давление пoнижается примернo на 1 мм рт.ст.).